This is the latest recevied weather packets stored in our database for station/object KC0AFB. If no packets are shown the sender has not sent any weather packets the latest 1 day(s).
| Time | Temp. | Humidity | Pressure | Rain* | Wind** | Luminosity | Snow |
|---|---|---|---|---|---|---|---|
| 1778025890 | 5° C | 49% | 1015.3 hPa | 0 mm | 3.58 m/s, 332° | 104 W/m² | - |
| 1778025586 | 5° C | 49% | 1015.3 hPa | 0 mm | 2.24 m/s, 326° | 99 W/m² | - |
| 1778025285 | 5° C | 49% | 1015.4 hPa | 0 mm | 3.58 m/s, 312° | 105 W/m² | - |
| 1778024981 | 5° C | 48% | 1015.5 hPa | 0 mm | 3.58 m/s, 9° | 117 W/m² | - |
| 1778024679 | 5° C | 49% | 1015.4 hPa | 0 mm | 3.58 m/s, 336° | 127 W/m² | - |
| 1778024375 | 5° C | 48% | 1015.3 hPa | 0 mm | 4.02 m/s, 331° | 105 W/m² | - |
| 1778024073 | 5° C | 49% | 1015.5 hPa | 0 mm | 2.68 m/s, 312° | 113 W/m² | - |
| 1778023770 | 5.56° C | 49% | 1015.4 hPa | 0 mm | 2.68 m/s, 352° | 147 W/m² | - |
| 1778023468 | 5° C | 48% | 1015.5 hPa | 0 mm | 3.58 m/s, 348° | 142 W/m² | - |
| 1778023165 | 5.56° C | 48% | 1015.3 hPa | 0 mm | 4.92 m/s, 312° | 124 W/m² | - |
| 1778022862 | 5.56° C | 49% | 1015.4 hPa | 0 mm | 2.24 m/s, 336° | 139 W/m² | - |
| 1778022560 | 5.56° C | 49% | 1015.3 hPa | 0 mm | 2.24 m/s, 2° | 162 W/m² | - |
| 1778022262 | 5° C | 48% | 1015.2 hPa | 0 mm | 4.02 m/s, 309° | 170 W/m² | - |
| 1778021954 | 5.56° C | 48% | 1015.2 hPa | 0 mm | 2.68 m/s, 309° | 138 W/m² | - |
| 1778021651 | 5° C | 48% | 1015.3 hPa | 0 mm | 3.13 m/s, 308° | 148 W/m² | - |
| 1778021346 | 5° C | 47% | 1015 hPa | 0 mm | 4.92 m/s, 325° | 150 W/m² | - |
| 1778021044 | 5.56° C | 48% | 1015 hPa | 0 mm | 3.58 m/s, 316° | 153 W/m² | - |
| 1778020741 | 5.56° C | 48% | 1015.1 hPa | 0 mm | 4.92 m/s, 311° | 186 W/m² | - |
| 1778020438 | 5.56° C | 49% | 1015 hPa | 0 mm | 1.79 m/s, 306° | 195 W/m² | - |
| 1778020134 | 5.56° C | 48% | 1015 hPa | 0 mm | 4.47 m/s, 315° | 193 W/m² | - |
| 1778019830 | 5.56° C | 49% | 1015.2 hPa | 0 mm | 4.92 m/s, 339° | 159 W/m² | - |
| 1778019527 | 5.56° C | 50% | 1015.1 hPa | 0 mm | 2.24 m/s, 311° | 174 W/m² | - |
| 1778019224 | 5.56° C | 50% | 1015.2 hPa | 0 mm | 4.02 m/s, 324° | 182 W/m² | - |
| 1778018921 | 5.56° C | 50% | 1015 hPa | 0 mm | 2.68 m/s, 317° | 165 W/m² | - |
| 1778018618 | 5° C | 50% | 1015 hPa | 0 mm | 3.58 m/s, 328° | 152 W/m² | - |
* Rain latest hour (hover to see other rain measurements)
** Current wind speed in m/s (hover to see current wind gust speed)